カタログに戻る

STARLINK-1413

運用中通信VLEO
NORAD 45689·PAYLOAD·🇺🇸 United States

打ち上げ Jun 4, 2020 から Cape Canaveral Space Force Station

Loading…

次のパス (今後24時間)

TLE

最新Source: CelesTrak SupGP

元期: Sep 14, 2026, 20:14 UTC

1 45689C 20035AJ  26257.84354167  .00082971  00000+0  18421-2 0  2573
2 45689  53.1524 243.6608 0002650  77.1244 311.7334 15.43081187    12

AllMySatでSTARLINK-1413をリアルタイム追跡

Download on the App Store